Location: Bacharowice
(49.9333°N, 19.5833°E)
Time: 02:29:58
(UTC+00:00)

NOSS 3-4 (A) - Pass Details

Date: 11 May 2021
Orbit: 872 x 1340 km, 63.4° (Epoch: 06 May)

Event Time Altitude Azimuth Distance (km) Brightness Sun altitude
Rises 19:20:25 0° 315° (NW) 3,737 9.0 -9.2°
Reaches altitude 10° 19:22:57 10° 319° (NW) 2,846 7.6 -9.5°
Maximum altitude 19:29:40 62° 40° (NE) 1,262 4.1 -10.3°
Enters shadow 19:36:40 12° 120° (ESE) 2,999 5.4 -11.1°
